Regional Weather Roundup
Issued by NWS

Home | Current Version | Previous Version | Text Only | Print | Product List | Glossary On
Versions: 1 2 3 4 5 6 7 8 9 10 11 12 13 14 15 16 17 18 19 20 21 22 23 24 25 26 27 28 29 30 31 32 33 34 35 36 37 38 39 40 41 42 43 44 45 46 47 48 49 50
000
ASUS44 KFWD 280315
RWRTX
NORTH TEXAS HOURLY WEATHER ROUNDUP
NATIONAL WEATHER SERVICE FORT WORTH TX
900 PM CST TUE JAN 27 2015

NOTE: "FAIR" INDICATES FEW OR NO CLOUDS BELOW 12,000 FEET WITH NO
SIGNIFICANT WEATHER AND/OR OBSTRUCTIONS TO VISIBILITY.

TXZ118-119-280400-
DALLAS/FORT WORTH METROPLEX

CITY           SKY/WX    TMP DP  RH WIND       PRES   REMARKS
DFW AIRPORT    MOCLDY    61  40  45 SE6       30.11S
DALLAS LOVE    MOCLDY    63  40  42 SE6       30.11S
FTW MEACHAM    PTCLDY    66  39  37 SE3       30.11R
DAL-EXECUTIVE  PTCLDY    63  39  41 S5        30.11S
FTW-ALLIANCE   MOCLDY    57  38  48 CALM      30.11R
FTW-SPINKS     CLEAR     59  39  47 CALM      30.13S
ARLINGTON      PTCLDY    54  39  57 CALM      30.12R
GRAND PRAIRIE  PTCLDY    64  42  45 CALM      30.13S
ADDISON        CLEAR     64  37  36 SE6       30.12F
MESQUITE       PTCLDY    59  39  48 SE3       30.12S
LANCASTER      PTCLDY    55  42  62 CALM      30.13S
$$

TXZ091>094-102>105-117-120-121-131>134-280400-
NORTH CENTRAL TEXAS

CITY           SKY/WX    TMP DP  RH WIND       PRES   REMARKS
SHRMAN/DENISON PTCLDY    60  41  49 SE9       30.11S
GAINESVILLE    PTCLDY    59  38  45 CALM      30.12S
BOWIE          CLOUDY    58  37  45 CALM      30.10S
BRIDGEPORT     PTCLDY    55  38  54 W3        30.13R
DECATUR        MOCLDY    64  35  33 S9        30.11S
DENTON         MOCLDY    59  38  45 SE3       30.11R
MCKINNEY       CLEAR     56  38  50 SE3       30.11S
GREENVILLE     CLEAR     52  41  66 CALM      30.12F
ROCKWALL       CLEAR     63  40  42 S7        30.11S
TERRELL        PTCLDY    56  43  61 CALM      30.13R
WAXAHACHIE     PTCLDY    60  42  51 SE3       30.14S
CLEBURNE       PTCLDY    63  39  42 S6        30.14R
GRANBURY       CLEAR     57  41  54 CALM      30.13S
$$

TXZ083>090-098>101-113>116-127>130-139>142-154-155-280400-
WESTERN NORTH TEXAS

CITY           SKY/WX    TMP DP  RH WIND       PRES   REMARKS
WICHITA FALLS  PTCLDY    57  39  51 S7        30.08S
WF-KICKAPOO    PTCLDY    47  33  57 S5        30.10S
VERNON         CLEAR     55  36  48 S8        30.09S
ABILENE        CLEAR     57  38  48 SE8       30.13S
ABILENE-DYESS  CLEAR     49  40  70 S5        30.12S
BRECKENRIDGE   CLEAR     61  36  40 SE10      30.12R
GRAHAM         CLEAR     61  39  45 SE6       30.10S
MINERAL WELLS  PTCLDY    61  37  41 S9        30.10S
STEPHENVILLE   CLEAR     61  39  43 S5        30.16R
COMANCHE       CLEAR     63  40  41 S6        30.14S
BROWNWOOD      CLEAR     50  39  66 CALM      30.14S
COLEMAN        CLEAR     55  41  60 SW3       30.15S
BRADY          CLEAR     64  32  29 S6        30.14S
$$

TXZ143>147-156>162-174-175-280400-
CENTRAL TEXAS

CITY           SKY/WX    TMP DP  RH WIND       PRES   REMARKS
WACO           CLEAR     51  42  71 SW7       30.13S
WACO-TSTC      CLEAR     52  37  58 MISG      30.13S
WACO-MCGREGOR  CLEAR     55  39  54 SW6       30.14S
HILLSBORO      PTCLDY    59  40  50 SE5       30.13S
CORSICANA      CLEAR     62  38  40 SE6       30.14R
MEXIA          CLEAR     60  40  48 CALM      30.13R
HEARNE         CLEAR     53  46  78 CALM      30.15R
CAMERON        CLEAR     60  46  59 S5        30.14R
TEMPLE         CLEAR     57  39  51 E5        30.13S
KILLEEN        CLEAR     62  43  50 S8        30.14S
FORT HOOD      CLEAR     60  42  52 MISG      30.13S
GATESVILLE     CLEAR     61  41  48 CALM      30.16S
HAMILTON       CLEAR     58  39  49 SE10      30.15S
LAMPASAS       FAIR      60  44  54 CALM      30.14S
$$

TXZ095>097-106>112-122>126-135>138-148>153-164>167-280400-
EAST TEXAS

CITY           SKY/WX    TMP DP  RH WIND       PRES   REMARKS
PARIS          CLEAR     61  36  39 CALM      30.12S
SULPHUR SPRNGS CLEAR     54  40  59 CALM      30.14S
MOUNT PLEASANT CLEAR     55  38  54 CALM      30.14R
GILMER         CLEAR     53  42  65 CALM      30.13R
MINEOLA        CLEAR     54  37  54 CALM      30.13S
TYLER          CLEAR     58  40  51 SW3       30.13R
LONGVIEW       CLEAR     52  44  74 S3        30.12S
MARSHALL       CLEAR     52  44  75 CALM      30.15S
ATHENS         CLEAR     52  43  71 CALM      30.13R
PALESTINE      CLEAR     55  44  66 CALM      30.15R
JACKSONVILLE   CLEAR     67  37  34 CALM      30.15S
HENDERSON      CLEAR     51  44  76 CALM      30.14S
NACOGDOCHES    CLEAR     48  43  81 CALM      30.15R
LUFKIN         CLEAR     54  46  74 E3        30.14R
$$

SUPPLEMENTAL OBSERVATIONS (CENTRAL)

CITY           SKY/WX    TMP DP  RH WIND       PRES   REMARKS
LAKE TEXOMA      N/A     63  37  39 S3          N/A
CADDO GRASSLND   N/A     50  43  76 S3          N/A
PAT MAYSE LAKE   N/A     52  46  82 SE2         N/A
GREENVILLE       N/A     59  37  44 S2          N/A
CEDAR HILL       N/A     64  37  36 SE7         N/A
ATHENS           N/A     54  41  62 CALM        N/A
PALESTINE        N/A     52  43  71 CALM        N/A
LAKE LIMESTONE   N/A     57  39  51 CALM        N/A
MCGREGOR         N/A     57  41  54 SW3         N/A
TEMPLE           N/A     64  39  39 E2          N/A
$$

SUPPLEMENTAL OBSERVATIONS (WEST)

CITY           SKY/WX    TMP DP  RH WIND       PRES   REMARKS
MILLERS CREEK    N/A     55  39  54 S3          N/A
POSSUM KINGDOM   N/A     64  36  34 SE5         N/A
LBJ GRASSLAND    N/A     64  34  32 CALM        N/A
GRANBURY         N/A     55  37  50 CALM        N/A
COMANCHE         N/A     63  34  34 S7          N/A
HAMBY            N/A     54  37  54 SE5         N/A
IVIE RESERVOIR   N/A     55  43  62 N5          N/A
COLORADO BEND    N/A     57  36  44 CALM        N/A
$$

SUPPLEMENTAL OBSERVATIONS (EAST)

CITY           SKY/WX    TMP DP  RH WIND       PRES   REMARKS
CLARKSVILLE      N/A     61  34  36 SE5         N/A
TEXARKANA        N/A     43  36  75 CALM        N/A
LINDEN           N/A     48  41  76 CALM        N/A
CADDO LAKE       N/A     45  41  87 CALM        N/A
GILMER           N/A     52  43  71 CALM        N/A
HENDERSON        N/A     52  41  66 CALM        N/A
LUFKIN           N/A     50  45  81 MISG        N/A
N SABINE NF      N/A     48  43  81 MISG        N/A
S SABINE NF      N/A     46  41  81 CALM        N/A
$$

SUPPLEMENTAL OBSERVATIONS ARE A COLLECTION OF AUTOMATED INSTRUMENTS
THAT ARE MAINTAINED BY A VARIETY OF FEDERAL AND STATE AGENCIES.
CERTAIN ELEMENTS...SUCH AS HUMIDITY VALUES AND SUSTAINED WIND
SPEEDS...MAY BE APPROXIMATED.



USA.gov is the U.S. government's official web portal to all federal, state and local government web resources and services.